Zurück zum Katalog

USA 160

AktivMilitärLEO
NORAD 26905·PAYLOAD·🇺🇸 United States

Gestartet Sep 8, 2001 von Vandenberg Space Force Base

Loading…

Nächste Überflüge (nächste 24 Stunden)

TLE

VeraltetSource: Mike McCants

Epoche: Aug 7, 2026, 20:44 UTC

1 26905U 01040A   26219.86449315 0.00000000  00000-0  00000-0 0    00
2 26905  63.3691 115.8316 0672021  13.1964 346.8036 13.41667698    00

Verfolge USA 160 in Echtzeit mit AllMySat

Download on the App Store